User: anonymous   Login
Location: Unspecified
(0.0000°N, 0.0000°E)
Time: 00:23:26
(UTC+02:00)
Language:

JASON 2 - Orbit

View from above orbital plane
View from above orbital plane
View from above satellite
View from above satellite

Ground track
Ground track

The orbit data is extracted from the following two-line orbital elements,

1 33105U 08032A   17265.17535900 -.00000054  00000-0  32590-4 0  9999
2 33105  66.0398 278.1866 0008347 266.0687 175.4515 12.87628689433073
Epoch (UTC): 22 September 2017 04:12:31
Eccentricity: 0.0008347
inclination: 66.0398°
perigee height: 1304 km
apogee height: 1317 km
right ascension of ascending node: 278.1866°
argument of perigee: 266.0687°
revolutions per day: 12.87628689
mean anomaly at epoch: 175.4515°
orbit number at epoch: 43307

The dashed part of the orbit path shows where the satellite is in the earth's shadow,  

DLR